Time,TemperatureF,DewpointF,PressureIn,WindDirection,WindDirectionDegrees,WindSpeedMPH,WindSpeedGustMPH,Humidity,HourlyPrecipIn,Conditions,Clouds,dailyrainin,SoftwareType,DateUTC
2013-01-17 00:02:00,17.0,17.0,-100.00,South,179,0.0,1.0,98,-99.99,,,-99.99,,2013-01-17 08:02:00,
2013-01-17 00:12:00,16.0,16.0,-100.00,ESE,102,1.0,3.0,98,-99.99,,,-99.99,,2013-01-17 08:12:00,
2013-01-17 00:22:00,16.0,16.0,-100.00,ESE,102,1.0,3.0,98,-99.99,,,-99.99,,2013-01-17 08:22:00,
2013-01-17 00:32:00,16.0,14.0,-100.00,East,96,3.0,5.0,95,-99.99,,,-99.99,,2013-01-17 08:32:00,
2013-01-17 00:43:00,16.0,14.0,-100.00,East,96,3.0,5.0,95,-99.99,,,-99.99,,2013-01-17 08:43:00,
2013-01-17 00:53:00,16.0,15.0,-100.00,ESE,114,3.0,5.0,96,-99.99,,,-99.99,,2013-01-17 08:53:00,
2013-01-17 01:02:00,16.0,15.0,-100.00,ESE,114,3.0,5.0,96,-99.99,,,-99.99,,2013-01-17 09:02:00,
2013-01-17 01:12:00,16.0,15.0,-100.00,ESE,104,4.0,6.0,97,-99.99,,,-99.99,,2013-01-17 09:12:00,
2013-01-17 01:22:00,16.0,15.0,-100.00,ESE,104,4.0,6.0,97,-99.99,,,-99.99,,2013-01-17 09:22:00,
2013-01-17 01:32:00,12.0,11.0,-100.00,SE,144,0.0,2.0,96,-99.99,,,-99.99,,2013-01-17 09:32:00,
2013-01-17 01:52:00,14.0,13.0,-100.00,SE,138,1.0,3.0,97,-99.99,,,-99.99,,2013-01-17 09:52:00,
2013-01-17 02:02:00,14.0,13.0,-100.00,SE,138,1.0,3.0,97,-99.99,,,-99.99,,2013-01-17 10:02:00,
2013-01-17 02:12:00,12.0,11.0,-100.00,South,184,1.0,2.0,96,-99.99,,,-99.99,,2013-01-17 10:12:00,
2013-01-17 02:22:00,12.0,11.0,-100.00,South,184,1.0,2.0,96,-99.99,,,-99.99,,2013-01-17 10:22:00,
2013-01-17 02:32:00,13.0,12.0,-100.00,WSW,258,0.0,1.0,96,-99.99,,,-99.99,,2013-01-17 10:32:00,
2013-01-17 02:53:00,13.0,11.0,-100.00,NNE,13,1.0,2.0,95,-99.99,,,-99.99,,2013-01-17 10:53:00,
2013-01-17 03:02:00,13.0,11.0,-100.00,NNE,13,1.0,2.0,95,-99.99,,,-99.99,,2013-01-17 11:02:00,
2013-01-17 03:12:00,14.0,13.0,-100.00,NNE,18,0.0,1.0,96,-99.99,,,-99.99,,2013-01-17 11:12:00,
2013-01-17 03:22:00,14.0,13.0,-100.00,NNE,18,0.0,1.0,96,-99.99,,,-99.99,,2013-01-17 11:22:00,
2013-01-17 03:32:00,13.0,11.0,-100.00,ESE,123,1.0,2.0,94,-99.99,,,-99.99,,2013-01-17 11:32:00,
2013-01-17 03:42:00,13.0,11.0,-100.00,ESE,123,1.0,2.0,94,-99.99,,,-99.99,,2013-01-17 11:42:00,
2013-01-17 03:53:00,11.0,9.0,-100.00,NE,38,0.0,2.0,91,-99.99,,,-99.99,,2013-01-17 11:53:00,
2013-01-17 04:02:00,11.0,9.0,-100.00,NE,38,0.0,2.0,91,-99.99,,,-99.99,,2013-01-17 12:02:00,
2013-01-17 04:12:00,10.0,9.0,-100.00,SW,215,1.0,2.0,96,-99.99,,,-99.99,,2013-01-17 12:12:00,
2013-01-17 04:22:00,10.0,9.0,-100.00,SW,215,1.0,2.0,96,-99.99,,,-99.99,,2013-01-17 12:22:00,
2013-01-17 04:32:00,9.0,8.0,-100.00,SSW,193,0.0,2.0,94,-99.99,,,-99.99,,2013-01-17 12:32:00,
2013-01-17 04:53:00,9.0,8.0,-100.00,SE,133,0.0,2.0,94,-99.99,,,-99.99,,2013-01-17 12:53:00,
2013-01-17 05:02:00,9.0,8.0,-100.00,SE,133,0.0,2.0,94,-99.99,,,-99.99,,2013-01-17 13:02:00,
2013-01-17 05:12:00,11.0,10.0,-100.00,ESE,114,1.0,2.0,94,-99.99,,,-99.99,,2013-01-17 13:12:00,
2013-01-17 05:22:00,11.0,10.0,-100.00,ESE,114,1.0,2.0,94,-99.99,,,-99.99,,2013-01-17 13:22:00,
2013-01-17 05:33:00,11.0,10.0,-100.00,ENE,78,1.0,2.0,95,-99.99,,,-99.99,,2013-01-17 13:33:00,
2013-01-17 05:42:00,11.0,10.0,-100.00,ENE,78,1.0,2.0,95,-99.99,,,-99.99,,2013-01-17 13:42:00,
2013-01-17 05:53:00,11.0,9.0,-100.00,ENE,78,0.0,2.0,94,-99.99,,,-99.99,,2013-01-17 13:53:00,
2013-01-17 06:03:00,11.0,9.0,-100.00,ENE,78,0.0,2.0,94,-99.99,,,-99.99,,2013-01-17 14:03:00,
2013-01-17 06:12:00,7.0,5.0,-100.00,WNW,291,0.0,2.0,90,-99.99,,,-99.99,,2013-01-17 14:12:00,
2013-01-17 06:23:00,7.0,5.0,-100.00,WNW,291,0.0,2.0,90,-99.99,,,-99.99,,2013-01-17 14:23:00,
2013-01-17 06:32:00,5.0,4.0,-100.00,West,281,2.0,3.0,93,-99.99,,,-99.99,,2013-01-17 14:32:00,
2013-01-17 06:53:00,9.0,8.0,-100.00,WNW,296,0.0,1.0,94,-99.99,,,-99.99,,2013-01-17 14:53:00,
2013-01-17 07:03:00,9.0,8.0,-100.00,WNW,296,0.0,1.0,94,-99.99,,,-99.99,,2013-01-17 15:03:00,
2013-01-17 07:12:00,10.0,9.0,-100.00,South,189,0.0,1.0,94,-99.99,,,-99.99,,2013-01-17 15:12:00,
2013-01-17 07:22:00,10.0,9.0,-100.00,South,189,0.0,1.0,94,-99.99,,,-99.99,,2013-01-17 15:22:00,
2013-01-17 07:33:00,8.0,6.0,-100.00,East,92,2.0,3.0,93,-99.99,,,-99.99,,2013-01-17 15:33:00,
2013-01-17 07:43:00,8.0,6.0,-100.00,East,92,2.0,3.0,93,-99.99,,,-99.99,,2013-01-17 15:43:00,
2013-01-17 07:53:00,9.0,8.0,-100.00,NNE,27,0.0,2.0,93,-99.99,,,-99.99,,2013-01-17 15:53:00,
2013-01-17 08:02:00,9.0,8.0,-100.00,NNE,27,0.0,2.0,93,-99.99,,,-99.99,,2013-01-17 16:02:00,
2013-01-17 08:12:00,5.0,2.0,-100.00,SE,140,1.0,2.0,90,-99.99,,,-99.99,,2013-01-17 16:12:00,
2013-01-17 08:22:00,5.0,2.0,-100.00,SE,140,1.0,2.0,90,-99.99,,,-99.99,,2013-01-17 16:22:00,
2013-01-17 08:33:00,7.0,5.0,-100.00,South,169,1.0,2.0,93,-99.99,,,-99.99,,2013-01-17 16:33:00,
2013-01-17 08:43:00,7.0,5.0,-100.00,South,169,1.0,2.0,93,-99.99,,,-99.99,,2013-01-17 16:43:00,
2013-01-17 08:53:00,9.0,8.0,-100.00,SSE,158,2.0,3.0,93,-99.99,,,-99.99,,2013-01-17 16:53:00,
2013-01-17 09:02:00,9.0,8.0,-100.00,SSE,158,2.0,3.0,93,-99.99,,,-99.99,,2013-01-17 17:02:00,
2013-01-17 09:12:00,11.0,10.0,-100.00,SSE,167,1.0,2.0,93,-99.99,,,-99.99,,2013-01-17 17:12:00,
2013-01-17 09:33:00,14.0,13.0,-100.00,South,175,1.0,2.0,94,-99.99,,,-99.99,,2013-01-17 17:33:00,
2013-01-17 09:43:00,14.0,13.0,-100.00,South,175,1.0,2.0,94,-99.99,,,-99.99,,2013-01-17 17:43:00,
2013-01-17 09:53:00,15.0,14.0,-100.00,South,178,1.0,2.0,94,-99.99,,,-99.99,,2013-01-17 17:53:00,
2013-01-17 10:03:00,15.0,14.0,-100.00,South,178,1.0,2.0,94,-99.99,,,-99.99,,2013-01-17 18:03:00,
2013-01-17 10:12:00,20.0,18.0,-100.00,SSW,199,1.0,2.0,94,-99.99,,,-99.99,,2013-01-17 18:12:00,
2013-01-17 10:22:00,20.0,18.0,-100.00,SSW,199,1.0,2.0,94,-99.99,,,-99.99,,2013-01-17 18:22:00,
2013-01-17 10:33:00,21.0,19.0,-100.00,West,264,1.0,4.0,94,-99.99,,,-99.99,,2013-01-17 18:33:00,
2013-01-17 10:43:00,21.0,19.0,-100.00,West,264,1.0,4.0,94,-99.99,,,-99.99,,2013-01-17 18:43:00,
2013-01-17 10:53:00,23.0,19.0,-100.00,West,260,2.0,4.0,85,-99.99,,,-99.99,,2013-01-17 18:53:00,
2013-01-17 11:02:00,23.0,19.0,-100.00,West,260,2.0,4.0,85,-99.99,,,-99.99,,2013-01-17 19:02:00,
2013-01-17 11:12:00,25.0,20.0,-100.00,WSW,243,1.0,3.0,80,-99.99,,,-99.99,,2013-01-17 19:12:00,
2013-01-17 11:22:00,25.0,20.0,-100.00,WSW,243,1.0,3.0,80,-99.99,,,-99.99,,2013-01-17 19:22:00,
2013-01-17 11:33:00,25.0,20.0,-100.00,West,268,2.0,5.0,78,-99.99,,,-99.99,,2013-01-17 19:33:00,
2013-01-17 11:42:00,25.0,20.0,-100.00,West,268,2.0,5.0,78,-99.99,,,-99.99,,2013-01-17 19:42:00,
2013-01-17 11:53:00,28.0,20.0,-100.00,SW,222,2.0,5.0,72,-99.99,,,-99.99,,2013-01-17 19:53:00,
2013-01-17 12:02:00,28.0,20.0,-100.00,SW,222,2.0,5.0,72,-99.99,,,-99.99,,2013-01-17 20:02:00,
2013-01-17 12:12:00,29.0,21.0,-100.00,SSW,203,2.0,4.0,71,-99.99,,,-99.99,,2013-01-17 20:12:00,
2013-01-17 12:22:00,29.0,21.0,-100.00,SSW,203,2.0,4.0,71,-99.99,,,-99.99,,2013-01-17 20:22:00,
2013-01-17 12:33:00,30.0,21.0,-100.00,SSW,202,2.0,4.0,67,-99.99,,,-99.99,,2013-01-17 20:33:00,
2013-01-17 12:43:00,30.0,21.0,-100.00,SSW,202,2.0,4.0,67,-99.99,,,-99.99,,2013-01-17 20:43:00,
2013-01-17 12:53:00,31.0,20.0,-100.00,SW,224,2.0,5.0,63,-99.99,,,-99.99,,2013-01-17 20:53:00,
2013-01-17 13:02:00,31.0,20.0,-100.00,SW,224,2.0,5.0,63,-99.99,,,-99.99,,2013-01-17 21:02:00,
2013-01-17 13:12:00,33.0,20.0,-100.00,SSE,155,2.0,4.0,59,-99.99,,,-99.99,,2013-01-17 21:12:00,
2013-01-17 13:22:00,33.0,20.0,-100.00,SSE,155,2.0,4.0,59,-99.99,,,-99.99,,2013-01-17 21:22:00,
2013-01-17 13:33:00,32.0,21.0,-100.00,South,186,2.0,4.0,61,-99.99,,,-99.99,,2013-01-17 21:33:00,
2013-01-17 13:42:00,32.0,21.0,-100.00,South,186,2.0,4.0,61,-99.99,,,-99.99,,2013-01-17 21:42:00,
2013-01-17 13:53:00,34.0,19.0,-100.00,SW,219,2.0,4.0,55,-99.99,,,-99.99,,2013-01-17 21:53:00,
2013-01-17 14:03:00,34.0,19.0,-100.00,SW,219,2.0,4.0,55,-99.99,,,-99.99,,2013-01-17 22:03:00,
2013-01-17 14:12:00,34.0,23.0,-100.00,South,184,2.0,5.0,62,-99.99,,,-99.99,,2013-01-17 22:12:00,
2013-01-17 14:22:00,34.0,23.0,-100.00,South,184,2.0,5.0,62,-99.99,,,-99.99,,2013-01-17 22:22:00,
2013-01-17 14:33:00,35.0,23.0,-100.00,South,174,2.0,4.0,61,-99.99,,,-99.99,,2013-01-17 22:33:00,
2013-01-17 14:41:00,36.0,21.0,-100.00,SW,233,2.0,4.0,52,-99.99,,,-99.99,,2013-01-17 22:41:00,
2013-01-17 14:42:00,35.0,23.0,-100.00,South,174,2.0,4.0,61,-99.99,,,-99.99,,2013-01-17 22:42:00,
2013-01-17 14:52:00,37.0,21.0,-100.00,SW,217,1.0,4.0,53,-99.99,,,-99.99,,2013-01-17 22:52:00,
2013-01-17 15:02:00,37.0,21.0,-100.00,SW,217,1.0,4.0,53,-99.99,,,-99.99,,2013-01-17 23:02:00,
2013-01-17 15:12:00,36.0,21.0,-100.00,SW,233,2.0,4.0,52,-99.99,,,-99.99,,2013-01-17 23:12:00,
2013-01-17 15:22:00,36.0,21.0,-100.00,SW,233,2.0,4.0,52,-99.99,,,-99.99,,2013-01-17 23:22:00,
2013-01-17 15:32:00,36.0,21.0,-100.00,SW,233,2.0,4.0,52,-99.99,,,-99.99,,2013-01-17 23:32:00,
2013-01-17 15:41:00,35.0,23.0,-100.00,South,172,3.0,5.0,61,-99.99,,,-99.99,,2013-01-17 23:41:00,
2013-01-17 15:53:00,34.0,24.0,-100.00,South,175,3.0,4.0,66,-99.99,,,-99.99,,2013-01-17 23:53:00,
2013-01-17 16:02:00,34.0,24.0,-100.00,South,175,3.0,4.0,66,-99.99,,,-99.99,,2013-01-18 00:02:00,
2013-01-17 16:12:00,35.0,23.0,-100.00,South,172,3.0,5.0,61,-99.99,,,-99.99,,2013-01-18 00:12:00,
2013-01-17 16:23:00,35.0,23.0,-100.00,South,172,3.0,5.0,61,-99.99,,,-99.99,,2013-01-18 00:23:00,
2013-01-17 16:32:00,35.0,23.0,-100.00,South,172,3.0,5.0,61,-99.99,,,-99.99,,2013-01-18 00:32:00,
2013-01-17 16:53:00,33.0,22.0,-100.00,South,172,3.0,5.0,65,-99.99,,,-99.99,,2013-01-18 00:53:00,
2013-01-17 17:02:00,33.0,22.0,-100.00,South,172,3.0,5.0,65,-99.99,,,-99.99,,2013-01-18 01:02:00,
2013-01-17 17:12:00,29.0,22.0,-100.00,South,184,4.0,5.0,72,-99.99,,,-99.99,,2013-01-18 01:12:00,
2013-01-17 17:22:00,29.0,22.0,-100.00,South,184,4.0,5.0,72,-99.99,,,-99.99,,2013-01-18 01:22:00,
2013-01-17 17:33:00,29.0,20.0,-100.00,SSW,198,2.0,4.0,70,-99.99,,,-99.99,,2013-01-18 01:33:00,
2013-01-17 17:42:00,29.0,20.0,-100.00,SSW,198,2.0,4.0,70,-99.99,,,-99.99,,2013-01-18 01:42:00,
2013-01-17 17:53:00,28.0,19.0,-100.00,South,176,1.0,2.0,69,-99.99,,,-99.99,,2013-01-18 01:53:00,
2013-01-17 18:02:00,28.0,19.0,-100.00,South,176,1.0,2.0,69,-99.99,,,-99.99,,2013-01-18 02:02:00,
2013-01-17 18:12:00,27.0,19.0,-100.00,NNE,13,1.0,2.0,71,-99.99,,,-99.99,,2013-01-18 02:12:00,
2013-01-17 18:22:00,27.0,19.0,-100.00,NNE,13,1.0,2.0,71,-99.99,,,-99.99,,2013-01-18 02:22:00,
2013-01-17 18:32:00,26.0,20.0,-100.00,WNW,289,1.0,2.0,77,-99.99,,,-99.99,,2013-01-18 02:32:00,
2013-01-17 18:42:00,26.0,20.0,-100.00,WNW,289,1.0,2.0,77,-99.99,,,-99.99,,2013-01-18 02:42:00,
2013-01-17 18:53:00,26.0,19.0,-100.00,WNW,295,0.0,3.0,76,-99.99,,,-99.99,,2013-01-18 02:53:00,
2013-01-17 19:02:00,26.0,19.0,-100.00,WNW,295,0.0,3.0,76,-99.99,,,-99.99,,2013-01-18 03:02:00,
2013-01-17 19:12:00,23.0,18.0,-100.00,WSW,241,0.0,1.0,81,-99.99,,,-99.99,,2013-01-18 03:12:00,
2013-01-17 19:22:00,23.0,18.0,-100.00,WSW,241,0.0,1.0,81,-99.99,,,-99.99,,2013-01-18 03:22:00,
2013-01-17 19:33:00,25.0,19.0,-100.00,South,185,0.0,3.0,78,-99.99,,,-99.99,,2013-01-18 03:33:00,
2013-01-17 19:41:00,23.0,18.0,-100.00,WNW,296,2.0,4.0,83,-99.99,,,-99.99,,2013-01-18 03:41:00,
2013-01-17 19:42:00,25.0,19.0,-100.00,South,185,0.0,3.0,78,-99.99,,,-99.99,,2013-01-18 03:42:00,
2013-01-17 19:52:00,23.0,18.0,-100.00,WNW,285,3.0,5.0,81,-99.99,,,-99.99,,2013-01-18 03:52:00,
2013-01-17 20:02:00,23.0,18.0,-100.00,WNW,285,3.0,5.0,81,-99.99,,,-99.99,,2013-01-18 04:02:00,
2013-01-17 20:12:00,23.0,18.0,-100.00,WNW,296,2.0,4.0,83,-99.99,,,-99.99,,2013-01-18 04:12:00,
2013-01-17 20:22:00,23.0,18.0,-100.00,WNW,296,2.0,4.0,83,-99.99,,,-99.99,,2013-01-18 04:22:00,
2013-01-17 20:32:00,23.0,18.0,-100.00,WNW,296,2.0,4.0,83,-99.99,,,-99.99,,2013-01-18 04:32:00,
2013-01-17 21:03:00,22.0,19.0,-100.00,NE,34,0.0,1.0,86,-99.99,,,-99.99,,2013-01-18 05:03:00,
2013-01-17 21:12:00,23.0,19.0,-100.00,NNE,21,1.0,3.0,84,-99.99,,,-99.99,,2013-01-18 05:12:00,
2013-01-17 21:22:00,23.0,19.0,-100.00,NNE,21,1.0,3.0,84,-99.99,,,-99.99,,2013-01-18 05:22:00,
2013-01-17 21:33:00,19.0,17.0,-100.00,East,90,0.0,2.0,93,-99.99,,,-99.99,,2013-01-18 05:33:00,
2013-01-17 21:42:00,19.0,17.0,-100.00,East,90,0.0,2.0,93,-99.99,,,-99.99,,2013-01-18 05:42:00,
2013-01-17 21:53:00,17.0,16.0,-100.00,SE,143,0.0,2.0,96,-99.99,,,-99.99,,2013-01-18 05:53:00,
2013-01-17 22:02:00,17.0,16.0,-100.00,SE,143,0.0,2.0,96,-99.99,,,-99.99,,2013-01-18 06:02:00,
2013-01-17 22:12:00,19.0,17.0,-100.00,East,89,1.0,2.0,94,-99.99,,,-99.99,,2013-01-18 06:12:00,
2013-01-17 22:22:00,19.0,17.0,-100.00,East,89,1.0,2.0,94,-99.99,,,-99.99,,2013-01-18 06:22:00,
2013-01-17 22:32:00,18.0,17.0,-100.00,ESE,102,2.0,4.0,94,-99.99,,,-99.99,,2013-01-18 06:32:00,
2013-01-17 22:42:00,18.0,17.0,-100.00,ESE,102,2.0,4.0,94,-99.99,,,-99.99,,2013-01-18 06:42:00,
2013-01-17 22:52:00,19.0,16.0,-100.00,ESE,107,2.0,4.0,89,-99.99,,,-99.99,,2013-01-18 06:52:00,
2013-01-17 23:02:00,19.0,16.0,-100.00,ESE,107,2.0,4.0,89,-99.99,,,-99.99,,2013-01-18 07:02:00,
2013-01-17 23:12:00,18.0,14.0,-100.00,East,85,0.0,2.0,86,-99.99,,,-99.99,,2013-01-18 07:12:00,
2013-01-17 23:22:00,18.0,14.0,-100.00,East,85,0.0,2.0,86,-99.99,,,-99.99,,2013-01-18 07:22:00,
2013-01-17 23:32:00,15.0,14.0,-100.00,ENE,76,0.0,1.0,96,-99.99,,,-99.99,,2013-01-18 07:32:00,
2013-01-17 23:42:00,15.0,14.0,-100.00,ENE,76,0.0,1.0,96,-99.99,,,-99.99,,2013-01-18 07:42:00,
2013-01-17 23:52:00,16.0,15.0,-100.00,East,86,2.0,4.0,96,-99.99,,,-99.99,,2013-01-18 07:52:00,